This is the latest recevied weather packets stored in our database for station/object WA4ORT. If no packets are shown the sender has not sent any weather packets the latest 10 day(s).
| Time | Temp. | Humidity | Pressure | Rain* | Wind** | Luminosity | Snow |
|---|---|---|---|---|---|---|---|
| 1777069177 | 27.78° C | - | - | 0 mm | 1.34 m/s, 180° | - | - |
| 1777068278 | 27.78° C | - | - | 0 mm | 0.45 m/s, 165° | - | - |
| 1777067383 | 27.22° C | - | - | 0 mm | 1.34 m/s, 252° | - | - |
| 1777066488 | 28.33° C | - | - | 0 mm | 2.24 m/s, 200° | - | - |
| 1777065590 | 28.33° C | - | - | 0 mm | 0.45 m/s, 288° | - | - |
| 1777064695 | 27.78° C | - | - | 0 mm | 0.89 m/s, 13° | - | - |
| 1777063801 | 27.22° C | - | - | 0 mm | 0.45 m/s, 177° | - | - |
| 1777062902 | 27.78° C | - | - | 0 mm | 0.89 m/s, 203° | - | - |
| 1777062007 | 27.78° C | - | - | 0 mm | 1.79 m/s, 169° | - | - |
| 1777061113 | 27.22° C | - | - | 0 mm | 2.24 m/s, 284° | - | - |
| 1777060214 | 28.33° C | - | - | 0 mm | 0.89 m/s, 291° | - | - |
| 1777059320 | 27.78° C | - | - | 0 mm | 1.79 m/s, 274° | - | - |
| 1777058425 | 27.22° C | - | - | 0 mm | 0.89 m/s, 118° | - | - |
| 1777057527 | 27.78° C | - | - | 0 mm | 2.24 m/s, 277° | - | - |
| 1777056632 | 27.78° C | - | - | 0 mm | 1.34 m/s, 203° | - | - |
| 1777055737 | 27.22° C | - | - | 0 mm | 2.68 m/s, 323° | - | - |
| 1777054839 | 27.78° C | - | - | 0 mm | 1.34 m/s, 249° | - | - |
| 1777053944 | 27.22° C | - | - | 0 mm | 1.79 m/s, 132° | - | - |
| 1777053049 | 26.67° C | - | - | 0 mm | 2.68 m/s, 210° | - | - |
| 1777052151 | 26.67° C | - | - | 0 mm | 1.79 m/s, 183° | - | - |
| 1777051256 | 26.67° C | - | - | 0 mm | 2.24 m/s, 212° | - | - |
| 1777050362 | 26.67° C | - | - | 0 mm | 0.89 m/s, 186° | - | - |
| 1777049463 | 26.67° C | - | - | 0 mm | 1.34 m/s, 212° | - | - |
| 1777048568 | 26.67° C | - | - | 0 mm | 2.24 m/s, 195° | - | - |
| 1777047674 | 26.11° C | - | - | 0 mm | 0.89 m/s, 287° | - | - |
* Rain latest hour (hover to see other rain measurements)
** Current wind speed in m/s (hover to see current wind gust speed)